Weather at Ermelo Airport

Public forecast

Using degrees Celsius for public forecast. Weather courtesy of forecast.io.

Current aviation weather report (METAR) for Ermelo Airport

Report is more than 6 hours old.

Retrieved 2021/10/19 09:43 UTC (12 hours ago):

FAEO 190943Z 04008KT 9999 FEW025 16/07 Q1029

Aviation forecast (TAF) for Ermelo Airport

Forecast is more than 12 hours old.

Retrieved 2017/06/05 04:55 UTC (4 years ago):

TAF FAEO 050300Z 0504/0515 09006KT CAVOK TX18/0513ZTN05/0504Z